| time (UTC) | temp F | wind direction | speed MPH | gust MPH | rain 1hr in | rain 24hr in | rain mn in | humidity % | barometer mb |
| 20260503212059 | 58 | 228 | 9.0 | 17.0 | 0.00 | 0.00 | 0.00 | 46 | 1014.4 |
| 20260503211602 | 59 | 288 | 8.0 | 17.0 | 0.00 | 0.00 | 0.00 | 47 | 1014.5 |
| 20260503211058 | 59 | 223 | 8.0 | 17.0 | 0.00 | 0.00 | 0.00 | 46 | 1014.5 |
| 20260503210559 | 59 | 270 | 6.0 | 17.0 | 0.00 | 0.00 | 0.00 | 47 | 1014.6 |
| 20260503210101 | 59 | 257 | 8.0 | 16.0 | 0.00 | 0.00 | 0.00 | 45 | 1014.5 |
| 20260503205556 | 59 | 256 | 8.0 | 17.0 | 0.00 | 0.00 | 0.00 | 47 | 1014.6 |
| 20260503205057 | 59 | 213 | 10.0 | 17.0 | 0.00 | 0.00 | 0.00 | 46 | 1014.7 |
| 20260503204605 | 59 | 263 | 7.0 | 18.0 | 0.00 | 0.00 | 0.00 | 46 | 1014.6 |
| 20260503204057 | 59 | 225 | 8.0 | 23.0 | 0.00 | 0.00 | 0.00 | 44 | 1014.7 |
| 20260503203556 | 59 | 233 | 7.0 | 23.0 | 0.00 | 0.00 | 0.00 | 44 | 1014.7 |
| 20260503203103 | 60 | 279 | 10.0 | 23.0 | 0.00 | 0.00 | 0.00 | 44 | 1014.7 |
| 20260503202557 | 60 | 209 | 12.0 | 20.0 | 0.00 | 0.00 | 0.00 | 43 | 1014.8 |
| 20260503202059 | 61 | 244 | 7.0 | 21.0 | 0.00 | 0.00 | 0.00 | 46 | 1014.8 |
| 20260503201558 | 61 | 277 | 7.0 | 21.0 | 0.00 | 0.00 | 0.00 | 45 | 1015.0 |
| 20260503201056 | 61 | 246 | 8.0 | 21.0 | 0.00 | 0.00 | 0.00 | 47 | 1014.9 |
| 20260503200558 | 61 | 251 | 7.0 | 18.0 | 0.00 | 0.00 | 0.00 | 47 | 1014.9 |
| 20260503200058 | 61 | 226 | 8.0 | 22.0 | 0.00 | 0.00 | 0.00 | 46 | 1015.0 |
| 20260503195557 | 60 | 188 | 11.0 | 22.0 | 0.00 | 0.00 | 0.00 | 45 | 1015.0 |
| 20260503195059 | 61 | 231 | 7.0 | 21.0 | 0.00 | 0.00 | 0.00 | 46 | 1015.0 |
| 20260503194600 | 61 | 225 | 11.0 | 21.0 | 0.00 | 0.00 | 0.00 | 45 | 1015.2 |
| 20260503194058 | 61 | 239 | 10.0 | 18.0 | 0.00 | 0.00 | 0.00 | 46 | 1015.1 |
| 20260503193601 | 61 | 278 | 8.0 | 20.0 | 0.00 | 0.00 | 0.00 | 46 | 1015.4 |
| 20260503193111 | 60 | 263 | 11.0 | 20.0 | 0.00 | 0.00 | 0.00 | 46 | 1015.5 |
| 20260503192600 | 60 | 227 | 7.0 | 17.0 | 0.00 | 0.00 | 0.00 | 45 | 1015.5 |
| 20260503192101 | 61 | 259 | 9.0 | 17.0 | 0.00 | 0.00 | 0.00 | 46 | 1015.6 |
| 20260503191600 | 60 | 210 | 7.0 | 20.0 | 0.00 | 0.00 | 0.00 | 46 | 1015.7 |
| 20260503191103 | 60 | 315 | 7.0 | 20.0 | 0.00 | 0.00 | 0.00 | 46 | 1015.8 |
| 20260503190601 | 60 | 219 | 8.0 | 19.0 | 0.00 | 0.00 | 0.00 | 45 | 1015.8 |
| 20260503190108 | 60 | 228 | 8.0 | 19.0 | 0.00 | 0.00 | 0.00 | 45 | 1016.0 |
| 20260503185600 | 60 | 244 | 10.0 | 19.0 | 0.00 | 0.00 | 0.00 | 44 | 1016.1 |
| 20260503185100 | 60 | 279 | 8.0 | 18.0 | 0.00 | 0.00 | 0.00 | 46 | 1016.1 |
| 20260503184603 | 60 | 250 | 9.0 | 18.0 | 0.00 | 0.00 | 0.00 | 47 | 1016.2 |
| 20260503184101 | 59 | 266 | 7.0 | 19.0 | 0.00 | 0.00 | 0.00 | 46 | 1016.3 |
| 20260503183600 | 59 | 261 | 10.0 | 20.0 | 0.00 | 0.00 | 0.00 | 46 | 1016.3 |
| 20260503183114 | 59 | 179 | 9.0 | 20.0 | 0.00 | 0.00 | 0.00 | 45 | 1016.5 |
| 20260503182601 | 59 | 220 | 11.0 | 19.0 | 0.00 | 0.00 | 0.00 | 44 | 1016.5 |
| 20260503182104 | 60 | 209 | 9.0 | 19.0 | 0.00 | 0.00 | 0.00 | 47 | 1016.7 |
| 20260503181559 | 59 | 224 | 7.0 | 18.0 | 0.00 | 0.00 | 0.00 | 47 | 1016.8 |
| 20260503181101 | 59 | 254 | 9.0 | 20.0 | 0.00 | 0.00 | 0.00 | 46 | 1016.8 |
| 20260503180601 | 59 | 244 | 10.0 | 20.0 | 0.00 | 0.00 | 0.00 | 48 | 1017.0 |
| 20260503180100 | 59 | 192 | 8.0 | 20.0 | 0.00 | 0.00 | 0.00 | 46 | 1017.0 |
| 20260503175559 | 58 | 257 | 8.0 | 21.0 | 0.00 | 0.00 | 0.00 | 47 | 1017.0 |
| 20260503175101 | 59 | 196 | 10.0 | 21.0 | 0.00 | 0.00 | 0.00 | 45 | 1017.2 |
| 20260503174600 | 59 | 213 | 9.0 | 17.0 | 0.00 | 0.00 | 0.00 | 47 | 1017.3 |
| 20260503174102 | 59 | 210 | 8.0 | 20.0 | 0.00 | 0.00 | 0.00 | 49 | 1017.3 |
| 20260503173604 | 59 | 265 | 7.0 | 20.0 | 0.00 | 0.00 | 0.00 | 48 | 1017.5 |
| 20260503173115 | 59 | 259 | 8.0 | 20.0 | 0.00 | 0.00 | 0.00 | 48 | 1017.4 |
| 20260503172600 | 58 | 226 | 7.0 | 18.0 | 0.00 | 0.00 | 0.00 | 49 | 1017.3 |
| 20260503172101 | 59 | 263 | 8.0 | 18.0 | 0.00 | 0.00 | 0.00 | 47 | 1017.5 |
| 20260503171601 | 59 | 254 | 8.0 | 18.0 | 0.00 | 0.00 | 0.00 | 49 | 1017.5 |
| 20260503171101 | 58 | 221 | 10.0 | 17.0 | 0.00 | 0.00 | 0.00 | 48 | 1017.5 |
| 20260503170603 | 58 | 273 | 7.0 | 17.0 | 0.00 | 0.00 | 0.00 | 46 | 1017.6 |
| 20260503150556 | 55 | 244 | 8.0 | 18.0 | 0.00 | 0.00 | 0.00 | 53 | 1018.4 |
| 20260503150112 | 54 | 271 | 10.0 | 17.0 | 0.00 | 0.00 | 0.00 | 56 | 1018.3 |
| 20260503140118 | 51 | 257 | 9.0 | 18.0 | 0.00 | 0.00 | 0.00 | 60 | 1018.5 |
| 20260503131056 | 47 | 249 | 7.0 | 15.0 | 0.00 | 0.00 | 0.00 | 64 | 1018.7 |
| 20260503130556 | 46 | 260 | 7.0 | 16.0 | 0.00 | 0.00 | 0.00 | 64 | 1018.7 |
| 20260503130109 | 46 | 248 | 8.0 | 16.0 | 0.00 | 0.00 | 0.00 | 64 | 1018.8 |
| 20260503110600 | 35 | 221 | 2.0 | 7.0 | 0.00 | 0.00 | 0.00 | 79 | 1018.0 |
| 20260503110115 | 35 | 246 | 2.0 | 7.0 | 0.00 | 0.00 | 0.00 | 79 | 1018.0 |
| 20260503100108 | 34 | 245 | 3.0 | 7.0 | 0.00 | 0.00 | 0.00 | 79 | 1017.5 |
| 20260503081620 | 34 | 261 | 1.0 | 4.0 | 0.00 | 0.00 | 0.00 | 77 | 1017.3 |
| 20260503081100 | 34 | 0 | 1.0 | 4.0 | 0.00 | 0.00 | 0.00 | 77 | 1017.4 |
| 20260503080559 | 34 | 263 | 1.0 | 4.0 | 0.00 | 0.00 | 0.00 | 77 | 1017.3 |
| 20260503080104 | 34 | 259 | 1.0 | 3.0 | 0.00 | 0.00 | 0.00 | 77 | 1017.3 |
| 20260503072600 | 35 | 244 | 1.0 | 5.0 | 0.00 | 0.00 | 0.00 | 77 | 1017.2 |
| 20260503072103 | 35 | 240 | 2.0 | 5.0 | 0.00 | 0.00 | 0.00 | 77 | 1017.2 |
| 20260503071609 | 35 | 0 | 0.0 | 4.0 | 0.00 | 0.00 | 0.00 | 76 | 1017.2 |
| 20260503071059 | 35 | 248 | 0.0 | 3.0 | 0.00 | 0.00 | 0.00 | 76 | 1017.3 |
| 20260503070600 | 35 | 251 | 0.0 | 5.0 | 0.00 | 0.00 | 0.00 | 75 | 1017.4 |
| 20260503060114 | 36 | 242 | 1.0 | 4.0 | 0.00 | 0.00 | 0.00 | 74 | 1017.7 |
| 20260503055057 | 36 | 0 | 0.0 | 0.0 | 0.00 | 0.00 | 0.00 | 74 | 1017.7 |
| 20260503054600 | 36 | 0 | 0.0 | 0.0 | 0.00 | 0.00 | 0.00 | 74 | 1017.7 |
| 20260503054057 | 36 | 0 | 0.0 | 0.0 | 0.00 | 0.00 | 0.00 | 74 | 1017.9 |
| 20260503053600 | 36 | 0 | 0.0 | 0.0 | 0.00 | 0.00 | 0.00 | 74 | 1017.8 |
| 20260503053107 | 36 | 0 | 0.0 | 0.0 | 0.00 | 0.00 | 0.00 | 74 | 1017.8 |
| 20260503052600 | 36 | 0 | 0.0 | 3.0 | 0.00 | 0.00 | 0.00 | 74 | 1017.9 |
| 20260503052101 | 36 | 0 | 0.0 | 3.0 | 0.00 | 0.00 | 0.00 | 74 | 1017.9 |
| 20260503051609 | 36 | 277 | 1.0 | 3.0 | 0.00 | 0.00 | 0.00 | 75 | 1017.9 |
| 20260503051100 | 36 | 279 | 1.0 | 3.0 | 0.00 | 0.00 | 0.00 | 74 | 1017.9 |
| 20260503050601 | 36 | 0 | 0.0 | 2.0 | 0.00 | 0.00 | 0.00 | 74 | 1017.8 |
| 20260503050111 | 36 | 0 | 0.0 | 2.0 | 0.00 | 0.00 | 0.00 | 74 | 1017.9 |
| 20260503045603 | 36 | 0 | 0.0 | 2.0 | 0.00 | 0.00 | 0.00 | 74 | 1017.8 |
| 20260503045057 | 36 | 0 | 0.0 | 2.0 | 0.00 | 0.00 | 0.00 | 74 | 1017.9 |
| 20260503044607 | 36 | 0 | 0.0 | 3.0 | 0.00 | 0.00 | 0.00 | 74 | 1017.9 |
| 20260503044103 | 36 | 280 | 1.0 | 3.0 | 0.00 | 0.00 | 0.00 | 74 | 1017.8 |
| 20260503043601 | 37 | 279 | 1.0 | 3.0 | 0.00 | 0.00 | 0.00 | 74 | 1017.8 |
| 20260503043101 | 37 | 279 | 1.0 | 3.0 | 0.00 | 0.00 | 0.00 | 74 | 1017.8 |
| 20260503042602 | 37 | 278 | 1.0 | 3.0 | 0.00 | 0.00 | 0.00 | 74 | 1017.8 |
| 20260503042100 | 37 | 279 | 0.0 | 3.0 | 0.00 | 0.00 | 0.00 | 73 | 1017.7 |
| 20260503041609 | 37 | 279 | 1.0 | 3.0 | 0.00 | 0.00 | 0.00 | 73 | 1017.7 |
| 20260503041058 | 37 | 280 | 0.0 | 2.0 | 0.00 | 0.00 | 0.00 | 73 | 1017.7 |
| 20260503040631 | 37 | 0 | 0.0 | 3.0 | 0.00 | 0.00 | 0.00 | 73 | 1017.9 |
| 20260503040110 | 37 | 0 | 1.0 | 3.0 | 0.00 | 0.00 | 0.00 | 72 | 1017.8 |
| 20260503035557 | 37 | 278 | 0.0 | 3.0 | 0.00 | 0.00 | 0.00 | 72 | 1017.9 |
| 20260503035104 | 37 | 0 | 0.0 | 0.0 | 0.00 | 0.00 | 0.00 | 73 | 1017.8 |
| 20260503034607 | 37 | 0 | 0.0 | 2.0 | 0.00 | 0.00 | 0.00 | 73 | 1017.9 |
| 20260503034100 | 37 | 0 | 0.0 | 2.0 | 0.00 | 0.00 | 0.00 | 73 | 1017.9 |
| 20260503033603 | 37 | 0 | 0.0 | 2.0 | 0.00 | 0.00 | 0.00 | 73 | 1017.9 |
| 20260503033107 | 37 | 0 | 0.0 | 0.0 | 0.00 | 0.00 | 0.00 | 74 | 1017.9 |
| 20260503032600 | 37 | 0 | 0.0 | 0.0 | 0.00 | 0.00 | 0.00 | 75 | 1017.9 |
| 20260503032056 | 37 | 0 | 0.0 | 0.0 | 0.00 | 0.00 | 0.00 | 74 | 1017.9 |
| 20260503031604 | 37 | 0 | 0.0 | 0.0 | 0.00 | 0.00 | 0.00 | 74 | 1018.0 |
| 20260503031057 | 37 | 0 | 0.0 | 0.0 | 0.00 | 0.00 | 0.00 | 74 | 1018.1 |
| 20260503030600 | 37 | 0 | 0.0 | 0.0 | 0.00 | 0.00 | 0.00 | 74 | 1018.1 |
| 20260503030104 | 37 | 0 | 0.0 | 0.0 | 0.00 | 0.00 | 0.00 | 74 | 1018.1 |
| 20260503025606 | 37 | 0 | 0.0 | 0.0 | 0.00 | 0.00 | 0.00 | 74 | 1018.2 |
| 20260503025057 | 37 | 0 | 0.0 | 0.0 | 0.00 | 0.00 | 0.00 | 74 | 1018.2 |
| 20260503024606 | 37 | 0 | 0.0 | 0.0 | 0.00 | 0.00 | 0.00 | 73 | 1018.1 |
| 20260503024100 | 37 | 0 | 0.0 | 0.0 | 0.00 | 0.00 | 0.00 | 72 | 1018.2 |
| 20260503023600 | 37 | 0 | 0.0 | 0.0 | 0.00 | 0.00 | 0.00 | 71 | 1018.2 |
| 20260503023105 | 37 | 0 | 0.0 | 0.0 | 0.00 | 0.00 | 0.00 | 71 | 1018.2 |
| 20260503022559 | 38 | 0 | 0.0 | 0.0 | 0.00 | 0.00 | 0.00 | 70 | 1018.2 |
| 20260503022059 | 38 | 0 | 0.0 | 0.0 | 0.00 | 0.00 | 0.00 | 70 | 1018.2 |
| 20260503021603 | 38 | 0 | 0.0 | 0.0 | 0.00 | 0.00 | 0.00 | 70 | 1018.2 |
| 20260503021102 | 38 | 0 | 0.0 | 0.0 | 0.00 | 0.00 | 0.00 | 69 | 1018.2 |
| 20260503020557 | 38 | 0 | 0.0 | 0.0 | 0.00 | 0.00 | 0.00 | 70 | 1018.2 |
| 20260503020104 | 38 | 0 | 0.0 | 0.0 | 0.00 | 0.00 | 0.00 | 69 | 1018.1 |
| 20260503015601 | 39 | 0 | 0.0 | 0.0 | 0.00 | 0.00 | 0.00 | 68 | 1018.2 |
| 20260503015057 | 39 | 0 | 0.0 | 0.0 | 0.00 | 0.00 | 0.00 | 68 | 1018.1 |
| 20260503014625 | 39 | 0 | 0.0 | 0.0 | 0.00 | 0.00 | 0.00 | 68 | 1018.0 |
| 20260503014057 | 40 | 0 | 0.0 | 0.0 | 0.00 | 0.00 | 0.00 | 68 | 1017.9 |
| 20260503013600 | 40 | 0 | 0.0 | 0.0 | 0.00 | 0.00 | 0.00 | 68 | 1018.0 |
| 20260503013101 | 40 | 0 | 0.0 | 2.0 | 0.00 | 0.00 | 0.00 | 68 | 1018.0 |
| 20260503012600 | 41 | 0 | 0.0 | 2.0 | 0.00 | 0.00 | 0.00 | 67 | 1017.9 |
| 20260503012059 | 41 | 0 | 0.0 | 2.0 | 0.00 | 0.00 | 0.00 | 66 | 1018.0 |
| 20260503011630 | 41 | 323 | 0.0 | 2.0 | 0.00 | 0.00 | 0.00 | 65 | 1017.9 |
| 20260503011058 | 42 | 323 | 0.0 | 2.0 | 0.00 | 0.00 | 0.00 | 65 | 1017.8 |
| 20260503010556 | 42 | 323 | 0.0 | 3.0 | 0.00 | 0.00 | 0.00 | 64 | 1017.9 |
| 20260503010059 | 43 | 323 | 1.0 | 3.0 | 0.00 | 0.00 | 0.00 | 64 | 1017.8 |
| 20260503005557 | 43 | 323 | 1.0 | 3.0 | 0.00 | 0.00 | 0.00 | 63 | 1017.8 |
| 20260503005057 | 43 | 323 | 1.0 | 5.0 | 0.00 | 0.00 | 0.00 | 63 | 1017.7 |
| 20260503004606 | 43 | 325 | 1.0 | 5.0 | 0.00 | 0.00 | 0.00 | 63 | 1017.6 |
| 20260503004057 | 44 | 330 | 3.0 | 7.0 | 0.00 | 0.00 | 0.00 | 62 | 1017.6 |
| 20260503003557 | 44 | 331 | 2.0 | 7.0 | 0.00 | 0.00 | 0.00 | 62 | 1017.6 |
| 20260503003059 | 44 | 301 | 3.0 | 8.0 | 0.00 | 0.00 | 0.00 | 61 | 1017.7 |
| 20260503002600 | 44 | 360 | 3.0 | 8.0 | 0.00 | 0.00 | 0.00 | 61 | 1017.7 |
| 20260503002057 | 44 | 311 | 3.0 | 8.0 | 0.00 | 0.00 | 0.00 | 61 | 1017.7 |
| 20260503001557 | 44 | 307 | 3.0 | 8.0 | 0.00 | 0.00 | 0.00 | 61 | 1017.7 |
| 20260503001057 | 45 | 292 | 3.0 | 8.0 | 0.00 | 0.00 | 0.00 | 62 | 1017.5 |
| 20260503000559 | 45 | 309 | 3.0 | 8.0 | 0.00 | 0.00 | 0.00 | 61 | 1017.5 |
| 20260503000100 | 45 | 9 | 4.0 | 8.0 | 0.00 | 0.00 | 0.00 | 61 | 1017.5 |
| 20260502235559 | 45 | 303 | 4.0 | 12.0 | 0.00 | 0.00 | 0.00 | 60 | 1017.4 |
| 20260502235059 | 45 | 333 | 4.0 | 12.0 | 0.00 | 0.00 | 0.00 | 60 | 1017.4 |
| 20260502234600 | 45 | 348 | 4.0 | 10.0 | 0.00 | 0.00 | 0.00 | 59 | 1017.3 |
| 20260502234058 | 45 | 329 | 3.0 | 11.0 | 0.00 | 0.00 | 0.00 | 60 | 1017.4 |
| 20260502233557 | 45 | 338 | 6.0 | 12.0 | 0.00 | 0.00 | 0.00 | 59 | 1017.3 |
| 20260502233059 | 45 | 333 | 6.0 | 12.0 | 0.00 | 0.00 | 0.00 | 59 | 1017.3 |
| 20260502232557 | 45 | 11 | 5.0 | 10.0 | 0.00 | 0.00 | 0.00 | 58 | 1017.3 |
| 20260502232057 | 46 | 9 | 4.0 | 10.0 | 0.00 | 0.00 | 0.00 | 59 | 1017.2 |
| 20260502231559 | 46 | 323 | 4.0 | 10.0 | 0.00 | 0.00 | 0.00 | 59 | 1017.3 |
| 20260502231057 | 46 | 352 | 4.0 | 11.0 | 0.00 | 0.00 | 0.00 | 58 | 1017.3 |
| 20260502230557 | 46 | 352 | 5.0 | 12.0 | 0.00 | 0.00 | 0.00 | 58 | 1017.2 |
| 20260502230058 | 46 | 352 | 7.0 | 12.0 | 0.00 | 0.00 | 0.00 | 58 | 1017.2 |
| 20260502225556 | 46 | 352 | 6.0 | 12.0 | 0.00 | 0.00 | 0.00 | 58 | 1017.2 |
| 20260502225058 | 46 | 12 | 7.0 | 11.0 | 0.00 | 0.00 | 0.00 | 58 | 1017.3 |
| 20260502224612 | 46 | 333 | 4.0 | 13.0 | 0.00 | 0.00 | 0.00 | 57 | 1017.2 |
| 20260502224100 | 46 | 10 | 5.0 | 14.0 | 0.00 | 0.00 | 0.00 | 57 | 1017.3 |
| 20260502223557 | 46 | 318 | 8.0 | 14.0 | 0.00 | 0.00 | 0.00 | 57 | 1017.2 |
| 20260502223057 | 46 | 352 | 7.0 | 14.0 | 0.00 | 0.00 | 0.00 | 57 | 1017.3 |
| 20260502222557 | 46 | 329 | 6.0 | 14.0 | 0.00 | 0.00 | 0.00 | 58 | 1017.1 |
| 20260502222100 | 46 | 342 | 8.0 | 14.0 | 0.00 | 0.00 | 0.00 | 57 | 1017.2 |
| 20260502221559 | 47 | 355 | 6.0 | 13.0 | 0.00 | 0.00 | 0.00 | 57 | 1017.2 |
| 20260502221059 | 47 | 350 | 7.0 | 16.0 | 0.00 | 0.00 | 0.00 | 57 | 1017.1 |
| 20260502220557 | 47 | 348 | 9.0 | 16.0 | 0.00 | 0.00 | 0.00 | 56 | 1017.1 |
| 20260502220106 | 47 | 328 | 6.0 | 13.0 | 0.00 | 0.00 | 0.00 | 57 | 1017.1 |
| 20260502215557 | 47 | 11 | 5.0 | 13.0 | 0.00 | 0.00 | 0.00 | 57 | 1017.0 |
| 20260502215100 | 47 | 348 | 8.0 | 13.0 | 0.00 | 0.00 | 0.00 | 56 | 1017.0 |
| 20260502214558 | 48 | 339 | 7.0 | 13.0 | 0.00 | 0.00 | 0.00 | 56 | 1017.0 |
| 20260502214121 | 48 | 15 | 6.0 | 13.0 | 0.00 | 0.00 | 0.00 | 56 | 1016.9 |
| 20260502213603 | 49 | 327 | 6.0 | 13.0 | 0.00 | 0.00 | 0.00 | 54 | 1017.0 |
| 20260502213124 | 49 | 360 | 6.0 | 12.0 | 0.00 | 0.00 | 0.00 | 54 | 1017.0 |
| 20260502212600 | 50 | 350 | 7.0 | 15.0 | 0.00 | 0.00 | 0.00 | 52 | 1017.0 |